527  
ASUS43 KIND 292209  
RWRIN  
 
WEATHER ROUNDUP FOR INDIANA  
NATIONAL WEATHER SERVICE INDIANAPOLIS IN  
600 PM EDT WED MAR 29 2017  
 
NOTE: "FAIR" INDICATES FEW OR NO CLOUDS BELOW 12,000 FEET WITH NO  
SIGNIFICANT WEATHER AND/OR S TO VISIBILITY
.  
 
* - STATION DOES NOT REPORT WEATHER SUCH AS PRECIPITATION OR FOG.
 
 
+ - STATION NOT QUALITY CONTROLLED BY THE NATIONAL WEATHER SERVICE.  
USE DATA WITH CAUTION...ESPECIALLY DEWPOINT AND RELATIVE  
HUMIDITY OBSERVATIONS.  
 
INZ001>003-010>013-019-020-292300-  
NORTHWEST INDIANA  
 
CITY SKY/WX TMP DP RH WIND PRES REMARKS
 
GARY /AIRPORT/ CLOUDY 46 36 66 NE14G26 30.11F  
KNOX *+ CLOUDY 52 10 19 E15 30.14F  
LA PORTE + CLOUDY 53 35 52 E16 30.14F  
MICHIGAN CITY+ CLOUDY 54 34 47 E8 30.12F  
MONTICELLO + CLOUDY 55 38 52 E15 30.07F  
RENSSELAER + CLOUDY 54 37 54 E24G30 30.03F  
VALPARAISO LGT RAIN 52 40 63 E16 30.10F  
 

 
 
LMZ046-743>745-292300-  
SOUTHERN LAKE MICHIGAN  
 
STATION/POSITION TIME TEMP WIND PRES WAVE
 
AIR SEA DIR/SP/G HT  
(UTC) (F) (DEG/KT/KT) (MB) (FT)  
BURNS HARBOR 2140 42 80/ 13/ 16 1020.3F  
MICHIGAN CITY 2140 42 50/ 11/ 12 N/A  
 

 
 
INZ004-005-014>016-021>024-292300-  
NORTH CENTRAL INDIANA  
 
CITY SKY/WX TMP DP RH WIND PRES REMARKS
 
ELKHART SUNNY 54 32 43 E12 30.19R  
GOSHEN CLOUDY 54 32 43 E12 30.20R  
LOGANSPORT + CLOUDY 55 37 50 E17 30.11F  
PERU/GRISSOM CLOUDY 56 40 55 NE18 30.11S  
ROCHESTER + CLOUDY 57 37 47 E14 30.15F  
SOUTH BEND CLOUDY 53 32 44 E13 30.19R  
WARSAW + CLOUDY 52 34 50 E9 30.19R  
 

 
 
INZ006>009-017-018-025>027-292300-  
NORTHEAST INDIANA  
 
CITY SKY/WX TMP DP RH WIND PRES REMARKS
 
ANGOLA *+ SUNNY 52 37 58 E13 30.19F  
AUBURN + CLOUDY 52 32 46 E14G21 30.19S  
FORT WAYNE CLOUDY 55 33 43 E21 30.17S  
HUNTINGTON + MOSUNNY 55 37 50 E8 30.15F  
KENDALLVILLE + MOSUNNY 52 32 45 E9G21 30.18S  
 

 
 
INZ028-029-035-036-043>045-051>053-292300-  
WEST CENTRAL INDIANA  
 
CITY SKY/WX TMP DP RH WIND PRES REMARKS
 
CRAWFORDSVL + CLOUDY 55 43 63 E16 30.03F  
GREENCASTLE + CLOUDY 55 43 62 E14G20 30.03F  
LAFAYETTE CLOUDY 55 41 59 E23G31 30.03F  
TERRE HAUTE PTSUNNY 59 46 62 E18 29.99F  
 

 
 
INZ030>032-037>040-046>048-054>057-064-065-292300-  
CENTRAL INDIANA  
 
CITY SKY/WX TMP DP RH WIND PRES REMARKS
 
CP ATTERBURY + CLOUDY 57 45 62 E13 30.05F  
COLUMBUS MOSUNNY 59 48 67 E14 30.05F  
FISHERS *+ CLOUDY 57 45 62 E10 30.07F  
FRANKFORT + CLOUDY 58 45 60 E17G24 30.08F  
GREENWOOD *+ MOSUNNY 59 45 60 E13G20 30.07S  
INDIANAPOLIS CLOUDY 60 43 53 E15 30.05F  
-EAGLE CREEK CLOUDY 60 42 51 E16 30.05F  
KOKOMO + PTSUNNY 56 43 61 E16 30.11F  
MARION + CLOUDY 56 39 52 E18 30.13F  
MT COMFORT *+ MOSUNNY 59 43 55 E16G24 30.07F  
SHELBYVILLE MOSUNNY 60 44 55 E16 30.05F  
ZIONSVILLE + CLOUDY 57 43 59 E13 30.08F  
 

 
 
INZ033-034-041-042-049-050-058-059-292300-  
EAST CENTRAL INDIANA  
 
CITY SKY/WX TMP DP RH WIND PRES REMARKS
 
MUNCIE SUNNY 59 42 53 E16 30.11F  
RICHMOND + SUNNY 59 41 51 E15 30.10F  
 

 
 
INZ060-061-067>069-081>083-085>088-292300-  
SOUTHWEST INDIANA  
 
CITY SKY/WX TMP DP RH WIND PRES REMARKS
 
EVANSVILLE PTSUNNY 69 52 54 E12G18 29.92F  
HUNTINGBURG *+ SUNNY 67 53 61 SE15 29.95F  
WASHINGTON + CLOUDY 64 49 59 CALM 29.96F  
 

 
 
INZ062-063-066-070>080-084-089>092-292300-  
SOUTH CENTRAL AND SOUTHEAST INDIANA  
 
CITY SKY/WX TMP DP RH WIND PRES REMARKS
 
BEDFORD + SUNNY 63 46 55 E14G20 29.99F  
BLOOMINGTON CLOUDY 64 44 48 E13G20 29.99F  
MADISON *+ SUNNY 63 45 51 E10 30.06F  
NORTH VERNON + PTSUNNY 63 45 51 NE8 30.06F  
SEYMOUR + SUNNY 64 48 55 E12 30.02F  
 

 
 
 
 
CLICK HERE TO GO TO PREVIOUS BULLETINS.

The Nexlab IN Page Main Text Page